EDW38 MROC-MRLB

Flight info

Callsign EDW38
Flight time 0h 19m
Altitude 11000
Route NANJO4L LIB
Aircraft A359/H-SDE2E3GHIJ1J3J4J5LM1ORWXY/LB1D1

Departure

Time 2026-04-27 21:59
Airport Juan Santamaría International Airport (MROC)

Arrival

Time 2026-04-27 22:19
Airport Daniel Oduber Quirós International Airport (MRLB)
Time Latitude Longitude Altitude Speed Heading
2026-04-27 21:13 9.99856 -84.20118 3067 ft 0 kts 298°
2026-04-27 21:49 9.99848 -84.20104 3031 ft 3 kts 298°
2026-04-27 21:50 9.99840 -84.20088 3030 ft 3 kts 298°
2026-04-27 21:50 9.99832 -84.20072 3033 ft 2 kts 298°
2026-04-27 21:50 9.99830 -84.20069 3048 ft 0 kts 300°
2026-04-27 21:51 9.99828 -84.20065 3047 ft 3 kts 305°
2026-04-27 21:51 9.99816 -84.20051 3047 ft 3 kts 324°
2026-04-27 21:51 9.99801 -84.20043 3047 ft 3 kts 343°
2026-04-27 21:52 9.99798 -84.20042 3047 ft 0 kts 347°
2026-04-27 21:54 9.99818 -84.20048 3048 ft 3 kts 338°
2026-04-27 21:54 9.99830 -84.20059 3047 ft 1 kts 308°
2026-04-27 21:55 9.99832 -84.20063 3047 ft 2 kts 296°
2026-04-27 21:55 9.99828 -84.20073 3048 ft 1 kts 246°
2026-04-27 21:55 9.99821 -84.20075 3048 ft 2 kts 204°
2026-04-27 21:55 9.99812 -84.20065 3047 ft 2 kts 125°
2026-04-27 21:56 9.99810 -84.20057 3046 ft 0 kts 110°
2026-04-27 21:56 9.99808 -84.20051 3046 ft 4 kts 110°
2026-04-27 21:57 9.99787 -84.20011 3047 ft 5 kts 143°
2026-04-27 21:57 9.99762 -84.20002 3047 ft 3 kts 159°
2026-04-27 21:57 9.99739 -84.20001 3048 ft 5 kts 191°
2026-04-27 21:57 9.99709 -84.20039 3048 ft 0 kts 246°
2026-04-27 21:59 9.99675 -84.20125 3048 ft 45 kts 249°
2026-04-27 21:59 9.99451 -84.20724 3049 ft 134 kts 248°
2026-04-27 21:59 9.99043 -84.21819 3440 ft 180 kts 248°
2026-04-27 21:59 9.98527 -84.22978 4555 ft 180 kts 242°
2026-04-27 22:00 9.97913 -84.24035 5324 ft 174 kts 244°
2026-04-27 22:00 9.97792 -84.25291 5631 ft 193 kts 285°
2026-04-27 22:00 9.98545 -84.26469 5985 ft 210 kts 319°
2026-04-27 22:00 9.99902 -84.27130 6395 ft 227 kts 348°
2026-04-27 22:01 10.01489 -84.27557 6876 ft 246 kts 341°
2026-04-27 22:01 10.03096 -84.28364 7266 ft 271 kts 324°
2026-04-27 22:01 10.04554 -84.29669 7863 ft 286 kts 315°
2026-04-27 22:01 10.05966 -84.31121 8567 ft 293 kts 313°
2026-04-27 22:02 10.07414 -84.32591 9317 ft 299 kts 316°
2026-04-27 22:02 10.08929 -84.34037 10157 ft 299 kts 316°
2026-04-27 22:02 10.10385 -84.35613 10680 ft 316 kts 307°
2026-04-27 22:02 10.11501 -84.37622 10891 ft 337 kts 295°
2026-04-27 22:03 10.12444 -84.39828 10924 ft 341 kts 293°
2026-04-27 22:03 10.13353 -84.42056 10913 ft 342 kts 293°
2026-04-27 22:03 10.14263 -84.44286 10901 ft 342 kts 293°
2026-04-27 22:03 10.15178 -84.46520 10889 ft 343 kts 293°
2026-04-27 22:04 10.16081 -84.48722 10875 ft 343 kts 293°
2026-04-27 22:04 10.17000 -84.50957 10862 ft 342 kts 293°
2026-04-27 22:04 10.17917 -84.53190 10840 ft 343 kts 293°
2026-04-27 22:04 10.18836 -84.55425 10849 ft 343 kts 293°
2026-04-27 22:05 10.19754 -84.57659 10847 ft 342 kts 293°
2026-04-27 22:05 10.20671 -84.59893 10843 ft 343 kts 293°
2026-04-27 22:05 10.21589 -84.62128 10848 ft 343 kts 293°
2026-04-27 22:05 10.22494 -84.64332 10838 ft 343 kts 293°
2026-04-27 22:06 10.23413 -84.66569 10836 ft 343 kts 293°
2026-04-27 22:06 10.24320 -84.68777 10837 ft 343 kts 293°
2026-04-27 22:06 10.25240 -84.71015 10833 ft 343 kts 293°
2026-04-27 22:06 10.26156 -84.73249 10836 ft 343 kts 293°
2026-04-27 22:07 10.27074 -84.75486 10827 ft 343 kts 293°
2026-04-27 22:07 10.27990 -84.77720 10829 ft 343 kts 293°
2026-04-27 22:07 10.28909 -84.79958 10829 ft 343 kts 293°
2026-04-27 22:07 10.29824 -84.82191 10825 ft 343 kts 293°
2026-04-27 22:08 10.30740 -84.84426 10821 ft 343 kts 293°
2026-04-27 22:08 10.31657 -84.86664 10825 ft 343 kts 294°
2026-04-27 22:08 10.32574 -84.88902 10821 ft 343 kts 294°
2026-04-27 22:08 10.33491 -84.91136 10818 ft 343 kts 294°
2026-04-27 22:09 10.34405 -84.93369 10818 ft 343 kts 294°
2026-04-27 22:09 10.35320 -84.95604 10819 ft 343 kts 294°
2026-04-27 22:09 10.36234 -84.97838 10817 ft 342 kts 294°
2026-04-27 22:09 10.37150 -85.00076 10813 ft 342 kts 294°
2026-04-27 22:10 10.38065 -85.02312 10811 ft 343 kts 294°
2026-04-27 22:10 10.38669 -85.03788 10811 ft 342 kts 294°
2026-04-27 22:10 10.39890 -85.06775 10808 ft 342 kts 294°
2026-04-27 22:10 10.40803 -85.09009 10797 ft 342 kts 294°
2026-04-27 22:11 10.41694 -85.11183 10680 ft 331 kts 294°
2026-04-27 22:11 10.42726 -85.13233 10468 ft 312 kts 304°
2026-04-27 22:11 10.43945 -85.14971 9791 ft 303 kts 309°
2026-04-27 22:11 10.45241 -85.16646 8920 ft 300 kts 311°
2026-04-27 22:12 10.46549 -85.18294 8060 ft 298 kts 311°
2026-04-27 22:12 10.47853 -85.19921 7257 ft 295 kts 311°
2026-04-27 22:12 10.49149 -85.21529 6458 ft 293 kts 311°
2026-04-27 22:12 10.50433 -85.23120 5685 ft 289 kts 311°
2026-04-27 22:13 10.51690 -85.24682 5124 ft 282 kts 311°
2026-04-27 22:13 10.52940 -85.26236 4789 ft 284 kts 311°
2026-04-27 22:13 10.54189 -85.27783 4445 ft 283 kts 311°
2026-04-27 22:13 10.55441 -85.29335 4150 ft 284 kts 311°
2026-04-27 22:14 10.56690 -85.30885 3798 ft 284 kts 311°
2026-04-27 22:14 10.57940 -85.32443 3433 ft 286 kts 310°
2026-04-27 22:14 10.59190 -85.34005 3275 ft 281 kts 310°
2026-04-27 22:14 10.60412 -85.35521 3229 ft 273 kts 311°
2026-04-27 22:15 10.61599 -85.36990 3146 ft 263 kts 311°
2026-04-27 22:15 10.62720 -85.38383 3056 ft 249 kts 311°
2026-04-27 22:15 10.63634 -85.39802 2801 ft 236 kts 288°
2026-04-27 22:15 10.63812 -85.41387 2622 ft 218 kts 268°
2026-04-27 22:16 10.63579 -85.42829 2450 ft 198 kts 245°
2026-04-27 22:16 10.63001 -85.44061 2202 ft 190 kts 244°
2026-04-27 22:16 10.62559 -85.45299 1915 ft 181 kts 250°
2026-04-27 22:16 10.62175 -85.46480 1685 ft 172 kts 249°
2026-04-27 22:17 10.61779 -85.47596 1449 ft 164 kts 249°
2026-04-27 22:17 10.61399 -85.48647 1251 ft 154 kts 249°
2026-04-27 22:17 10.61050 -85.49644 1051 ft 145 kts 250°
2026-04-27 22:17 10.60724 -85.50606 838 ft 144 kts 250°
2026-04-27 22:18 10.60389 -85.51565 658 ft 144 kts 248°
2026-04-27 22:18 10.60040 -85.52533 503 ft 148 kts 248°
2026-04-27 22:18 10.59678 -85.53512 305 ft 148 kts 246°
2026-04-27 22:18 10.59354 -85.54408 275 ft 117 kts 251°
2026-04-27 22:19 10.59120 -85.55059 271 ft 79 kts 250°
2026-04-27 22:19 10.59026 -85.55325 270 ft 8 kts 261°
2026-04-27 22:19 10.59045 -85.55385 269 ft 11 kts 292°
2026-04-27 22:19 10.59081 -85.55470 267 ft 15 kts 294°
2026-04-27 22:20 10.59108 -85.55566 266 ft 14 kts 263°
2026-04-27 22:20 10.59065 -85.55651 265 ft 14 kts 212°
2026-04-27 22:20 10.58974 -85.55640 266 ft 12 kts 157°
2026-04-27 22:20 10.58936 -85.55571 266 ft 12 kts 81°
2026-04-27 22:21 10.58965 -85.55487 267 ft 13 kts 70°
2026-04-27 22:21 10.58999 -85.55395 269 ft 14 kts 70°
2026-04-27 22:21 10.59033 -85.55298 270 ft 15 kts 70°
2026-04-27 22:21 10.59070 -85.55194 271 ft 16 kts 69°
2026-04-27 22:22 10.59113 -85.55078 272 ft 19 kts 69°
2026-04-27 22:22 10.59160 -85.54950 271 ft 20 kts 69°
2026-04-27 22:22 10.59209 -85.54811 271 ft 22 kts 70°
2026-04-27 22:22 10.59263 -85.54661 271 ft 23 kts 70°
2026-04-27 22:23 10.59318 -85.54509 274 ft 23 kts 70°
2026-04-27 22:23 10.59374 -85.54351 278 ft 24 kts 70°
2026-04-27 22:23 10.59428 -85.54204 278 ft 12 kts 69°
2026-04-27 22:23 10.59453 -85.54133 279 ft 11 kts 70°
2026-04-27 22:24 10.59482 -85.54052 279 ft 13 kts 70°
2026-04-27 22:24 10.59515 -85.53960 280 ft 15 kts 70°
2026-04-27 22:24 10.59548 -85.53869 282 ft 10 kts 70°
2026-04-27 22:24 10.59594 -85.53826 282 ft 10 kts
2026-04-27 22:25 10.59663 -85.53846 282 ft 12 kts 340°
2026-04-27 22:25 10.59743 -85.53873 282 ft 10 kts 351°
2026-04-27 22:25 10.59787 -85.53835 283 ft 9 kts 67°
2026-04-27 22:25 10.59812 -85.53768 283 ft 11 kts 70°
2026-04-27 22:26 10.59840 -85.53689 284 ft 13 kts 70°
2026-04-27 22:26 10.59870 -85.53602 285 ft 10 kts 70°
2026-04-27 22:26 10.59893 -85.53549 285 ft 6 kts 46°
2026-04-27 22:26 10.59938 -85.53549 285 ft 7 kts 344°
2026-04-27 22:27 10.59971 -85.53561 285 ft 2 kts 339°
2026-04-27 22:27 10.59977 -85.53564 285 ft 0 kts 340°
2026-04-27 22:27 10.59982 -85.53565 285 ft 0 kts 340°
2026-04-27 22:28 10.59983 -85.53566 285 ft 0 kts 340°